Location: Most
(50.5133°N, 13.6207°E)
Time: 19:38:44
(UTC+02:00)

ISS - Pass Details

Date: 23 May 2019
Orbit: 407 x 410 km, 51.6° (Epoch: 23 May)

Event Time Altitude Azimuth Distance (km) Brightness Sun altitude
Rises 23:26:59 0° 277° (W) 2,335 0.5 -15.8°
Reaches altitude 10° 23:29:04 10° 279° (W) 1,474 -0.6 -15.9°
Maximum altitude 23:32:22 72° 4° (N) 434 -3.6 -16.1°
Enters shadow 23:35:08 14° 89° (E) 1,258 -1.6 -16.3°
